Weather History for KSAR - December, 2012

Change the Weather History Date:

Monday, December 3, 2012

  Actual Average (KBLV) Record (KBLV)
Temperature  
Mean Temperature 64 °F -  
Max Temperature 68 °F 48 °F 76 °F (1970)
Min Temperature 60 °F 30 °F 12 °F (1976)
Degree Days  
Heating Degree Days 1    
Growing Degree Days 14 (Base 50)    
Moisture  
Dew Point 62 °F    
Average Humidity 93    
Maximum Humidity 100    
Minimum Humidity 77    
Precipitation  
Precipitation 0.00 in - - ()
Sea Level Pressure  
Sea Level Pressure 30.01 in    
Wind  
Wind Speed 13 mph (South)    
Max Wind Speed 23 mph    
Max Gust Speed 30 mph    
Visibility 10 miles    
Events      
Averages and records for this station are not official NWS values.
T = Trace of Precipitation, MM = Missing Value Source: NWS Daily Summary

Daily Weather History Graph

Daily Weather History Graph

Search for Another Location

Airport or City:

Trip Planner

Search our weather history database for the weather conditions in past years. The results will help you decide how hot, cold, wet, or windy it might be!

Date:

Astronomy

Dec. 03, 2012 Rise Set
Actual Time 6:58 AM CST 4:38 PM CST
Civil Twilight 6:29 AM CST 5:08 PM CST
Nautical Twilight 5:56 AM CST 5:40 PM CST
Astronomical Twilight 5:24 AM CST 6:12 PM CST
Moon 9:23 PM CST (12/3) 10:24 AM CST (12/3)
Length of Visible Light 10h 38m
Length of Day
9h 40m
Waning Gibbous, 78% of the Moon is Illuminated
Dec 3
Waning Gibbous
Dec 6
Last Quarter
Dec 13
New
Dec 19
First Quarter
Dec 28
Full

Hourly Weather History & Observations

Time (CST) Temp. Dew Point Humidity Pressure Visibility Wind Dir Wind Speed Gust Speed Precip Events Conditions
12:15 AM 62.6 °F 62.6 °F 100% 30.05 in 10.0 mi South 9.2 mph - N/A   Clear
12:35 AM 62.6 °F 62.6 °F 100% 30.05 in 10.0 mi South 10.4 mph 16.1 mph N/A   Clear
12:55 AM 62.6 °F 62.6 °F 100% 30.05 in 10.0 mi South 10.4 mph - N/A   Clear
1:15 AM 62.6 °F 62.6 °F 100% 30.05 in 10.0 mi South 9.2 mph - N/A   Clear
1:35 AM 64.4 °F 64.4 °F 100% 30.06 in 10.0 mi South 10.4 mph - N/A   Mostly Cloudy
1:55 AM 64.4 °F 64.4 °F 100% 30.06 in 10.0 mi South 12.7 mph - N/A   Overcast
2:15 AM 64.4 °F 64.4 °F 100% 30.06 in 10.0 mi South 10.4 mph - N/A   Mostly Cloudy
2:35 AM 64.4 °F 64.4 °F 100% 30.06 in 10.0 mi South 11.5 mph - N/A   Mostly Cloudy
2:55 AM 64.4 °F 64.4 °F 100% 30.06 in 10.0 mi South 10.4 mph - N/A   Mostly Cloudy
3:15 AM 64.4 °F 64.4 °F 100% 30.06 in 10.0 mi South 10.4 mph - N/A   Mostly Cloudy
3:35 AM 62.6 °F 62.6 °F 100% 30.05 in 10.0 mi South 10.4 mph 18.4 mph N/A   Scattered Clouds
3:55 AM 62.6 °F 62.6 °F 100% 30.05 in 10.0 mi South 10.4 mph 17.3 mph N/A   Scattered Clouds
4:15 AM 62.6 °F 62.6 °F 100% 30.05 in 10.0 mi South 10.4 mph - N/A   Mostly Cloudy
4:35 AM 62.6 °F 62.6 °F 100% 30.05 in 10.0 mi South 12.7 mph - N/A   Overcast
4:55 AM 62.6 °F 62.6 °F 100% 30.05 in 10.0 mi South 12.7 mph 16.1 mph N/A   Mostly Cloudy
5:15 AM 62.6 °F 62.6 °F 100% 30.05 in 10.0 mi South 12.7 mph 18.4 mph N/A   Overcast
5:35 AM 62.6 °F 62.6 °F 100% 30.05 in 10.0 mi South 11.5 mph 16.1 mph N/A   Overcast
5:55 AM 60.8 °F 60.8 °F 100% 30.04 in 10.0 mi South 15.0 mph - N/A   Scattered Clouds
6:15 AM 60.8 °F 60.8 °F 100% 30.05 in 10.0 mi South 11.5 mph - N/A   Clear
6:35 AM 60.8 °F 60.8 °F 100% 30.04 in 10.0 mi South 12.7 mph - N/A   Clear
6:55 AM 60.8 °F 60.8 °F 100% 30.04 in 10.0 mi SSE 12.7 mph 18.4 mph N/A   Clear
7:15 AM 60.8 °F 60.8 °F 100% 30.04 in 10.0 mi South 11.5 mph - N/A   Mostly Cloudy
7:35 AM 62.6 °F 62.6 °F 100% 30.05 in 10.0 mi South 12.7 mph 18.4 mph N/A   Overcast
7:55 AM 62.6 °F 62.6 °F 100% 30.04 in 10.0 mi South 17.3 mph 21.9 mph N/A   Overcast
8:15 AM 62.6 °F 62.6 °F 100% 30.05 in 10.0 mi South 15.0 mph - N/A   Overcast
8:55 AM 62.6 °F 62.6 °F 100% 30.04 in 10.0 mi South 17.3 mph 23.0 mph N/A   Overcast
9:15 AM 62.6 °F 62.6 °F 100% 30.04 in 10.0 mi South 18.4 mph 24.2 mph N/A   Overcast
9:35 AM 62.6 °F 62.6 °F 100% 30.04 in 10.0 mi South 12.7 mph 23.0 mph N/A   Overcast
9:55 AM 62.6 °F 62.6 °F 100% 30.05 in 10.0 mi South 17.3 mph 21.9 mph N/A   Overcast
10:15 AM 62.6 °F 62.6 °F 100% 30.05 in 10.0 mi South 13.8 mph 23.0 mph N/A   Overcast
10:35 AM 64.4 °F 64.4 °F 100% 30.04 in 10.0 mi South 15.0 mph 23.0 mph N/A   Overcast
10:55 AM 64.4 °F 64.4 °F 100% 30.04 in 10.0 mi South 16.1 mph 20.7 mph N/A   Scattered Clouds
11:15 AM 64.4 °F 64.4 °F 100% 30.02 in 10.0 mi South 17.3 mph 25.3 mph N/A   Scattered Clouds
11:35 AM 64.4 °F 64.4 °F 100% 30.02 in 10.0 mi South 17.3 mph 23.0 mph N/A   Mostly Cloudy
11:55 AM 66.2 °F 64.4 °F 94% 30.01 in 10.0 mi South 15.0 mph 23.0 mph N/A   Mostly Cloudy
12:15 PM 66.2 °F 64.4 °F 94% 30.00 in 10.0 mi South 18.4 mph 29.9 mph N/A   Mostly Cloudy
12:35 PM 66.2 °F 64.4 °F 94% 29.99 in 10.0 mi South 17.3 mph 26.5 mph N/A   Mostly Cloudy
12:55 PM 68.0 °F 62.6 °F 83% 29.99 in 10.0 mi South 17.3 mph 25.3 mph N/A   Overcast
1:15 PM 68.0 °F 62.6 °F 83% 29.97 in 10.0 mi South 18.4 mph 25.3 mph N/A   Mostly Cloudy
1:35 PM 68.0 °F 62.6 °F 83% 29.96 in 10.0 mi South 18.4 mph 28.8 mph N/A   Scattered Clouds
1:55 PM 68.0 °F 62.6 °F 83% 29.96 in 10.0 mi South 17.3 mph 27.6 mph N/A   Scattered Clouds
2:15 PM 68.0 °F 62.6 °F 83% 29.95 in 10.0 mi South 19.6 mph 29.9 mph N/A   Clear
2:35 PM 68.0 °F 62.6 °F 83% 29.95 in 10.0 mi South 23.0 mph 29.9 mph N/A   Clear
2:55 PM 66.2 °F 62.6 °F 88% 29.95 in 10.0 mi South 17.3 mph 29.9 mph N/A   Clear
3:15 PM 66.2 °F 62.6 °F 88% 29.95 in 10.0 mi South 23.0 mph 29.9 mph N/A   Scattered Clouds
3:35 PM 66.2 °F 62.6 °F 88% 29.95 in 10.0 mi South 16.1 mph 26.5 mph N/A   Scattered Clouds
3:55 PM 66.2 °F 62.6 °F 88% 29.96 in 10.0 mi South 15.0 mph 27.6 mph N/A   Scattered Clouds
4:15 PM 66.2 °F 62.6 °F 88% 29.96 in 10.0 mi South 13.8 mph 23.0 mph N/A   Clear
4:35 PM 66.2 °F 62.6 °F 88% 29.97 in 10.0 mi South 15.0 mph 21.9 mph N/A   Scattered Clouds
4:55 PM 66.2 °F 62.6 °F 88% 29.97 in 10.0 mi South 18.4 mph 24.2 mph N/A   Clear
5:15 PM 66.2 °F 64.4 °F 94% 29.97 in 10.0 mi South 18.4 mph 23.0 mph N/A   Clear
5:35 PM 66.2 °F 62.6 °F 88% 29.97 in 10.0 mi South 15.0 mph 26.5 mph N/A   Clear
5:55 PM 66.2 °F 62.6 °F 88% 29.97 in 10.0 mi South 13.8 mph 18.4 mph N/A   Clear
6:15 PM 66.2 °F 62.6 °F 88% 29.96 in 10.0 mi South 15.0 mph 20.7 mph N/A   Clear
6:35 PM 66.2 °F 64.4 °F 94% 29.98 in 10.0 mi South 10.4 mph - N/A   Clear
6:55 PM 64.4 °F 62.6 °F 94% 30.00 in 10.0 mi South 6.9 mph - N/A   Clear
7:15 PM 64.4 °F 62.6 °F 94% 30.00 in 10.0 mi South 9.2 mph 17.3 mph N/A   Scattered Clouds
7:35 PM 66.2 °F 62.6 °F 88% 30.01 in 10.0 mi SSW 10.4 mph - N/A   Mostly Cloudy
7:55 PM 66.2 °F 60.8 °F 83% 30.01 in 10.0 mi SSW 8.1 mph - N/A   Overcast
8:15 PM 66.2 °F 60.8 °F 83% 30.01 in 10.0 mi SSW 8.1 mph - N/A   Overcast
8:35 PM 66.2 °F 60.8 °F 83% 30.01 in 10.0 mi South 8.1 mph - N/A   Overcast
8:55 PM 64.4 °F 59.0 °F 83% 30.00 in 10.0 mi South 11.5 mph - N/A   Mostly Cloudy
9:15 PM 64.4 °F 57.2 °F 77% 29.99 in 10.0 mi South 11.5 mph - N/A   Scattered Clouds
9:35 PM 64.4 °F 57.2 °F 77% 29.99 in 10.0 mi South 13.8 mph 18.4 mph N/A   Clear
9:55 PM 64.4 °F 57.2 °F 77% 29.98 in 10.0 mi South 11.5 mph 18.4 mph N/A   Clear
10:15 PM 64.4 °F 57.2 °F 77% 29.98 in 10.0 mi South 13.8 mph 18.4 mph N/A   Clear
10:35 PM 64.4 °F 59.0 °F 83% 29.98 in 10.0 mi South 10.4 mph - N/A   Clear
10:55 PM 64.4 °F 59.0 °F 83% 29.98 in 10.0 mi South 12.7 mph 20.7 mph N/A   Clear
11:15 PM 64.4 °F 60.8 °F 88% 29.97 in 10.0 mi SSW 15.0 mph - N/A   Clear
11:35 PM 64.4 °F 60.8 °F 88% 29.97 in 10.0 mi South 12.7 mph 20.7 mph N/A   Clear
11:55 PM 64.4 °F 60.8 °F 88% 29.97 in 10.0 mi South 15.0 mph 20.7 mph N/A   Clear